Location: Caualo
(45.5667°N, 10.8667°E)
Time: 00:51:56
(UTC+00:00)

In-Cosmos 22 Rocket - Pass Details

Date: 03 October 2020
Orbit: 790 x 889 km, 81.2° (Epoch: 27 October)

Event Time Altitude Azimuth Distance (km) Brightness Sun altitude
Rises 20:49:19 0° 348° (NNW) 3,327 8.0 -39.3°
Reaches altitude 10° 20:51:43 10° 347° (NNW) 2,383 7.1 -39.6°
Enters shadow 20:53:01 18° 346° (NNW) 1,885 6.4 -39.8°
